Content
SEND FEEDBACK

Daily
Averages
Monthly
Summary
French Guiana

MATOURY, FRENCH GUIANA


Home > South America > French Guiana
Elevation: 9 meters     Latitude: 04 49N     Longitude: 052 22W

WEATHER
 
SELECT A DAY
Number of Records: 205,492;   Date Range: 6/30/96 - 8/31/14
 
SHARE

PRINT THIS DATA

[ ← Previous Day ]
WEATHER ALMANAC - 23 JANUARY, 2013
[ Next Day → ]
[ °F ]   °C
Weather ElementAverageHighLow
Temperature27.2 °C30 °C (12:30 pm)25 °C (6:00 am)
Dewpoint22.3 °C24 °C (11:30 am)21 °C (6:30 am)
Humidity74.1 %89 % (7:30 am)55 % (3:00 pm)
Barometer1012.9 hPa1014.9 hPa (9:00 am)1011.2 hPa (3:30 pm)
Wind Speed15.8 km/h29.6 km/h (2:00 pm)
Weather ElementAverage
Visibility10.9 km
Wind DirectionNE (42.6 °)

Weather ElementTotal
Precipitation---
Cooling Degree Days9.2 (Base 18.3)
Growing Degree Days17.5 (Base 10)
Averaged from 50 records on 23 January, 2013
WEATHER CONDITIONS BREAKOUT
WIND DIRECTION BREAKOUT
WEATHER BY HOUR - 23 JANUARY, 2013
[ °F ]   °C
Local TimeTemperatureDewpointHumidityBarometerVisibilityWind DirectionWind SpeedGust SpeedPrecipitationEventsConditions
12:30 AM26 °C23 °C83 %1013.2 hPa10 kmENE (60°)7.4 km/hPartly Cloudy
1:00 AM26 °C22 °C78 %1013.2 hPa10 kmENE (60°)7.4 km/hMostly Cloudy
1:30 AM26 °C22 °C78 %1013.2 hPa10 kmNE (50°)11.1 km/hMostly Cloudy
2:00 AM26 °C22 °C78 %1012.2 hPa10 kmNE (40°)13 km/hMostly Cloudy
2:30 AM26 °C22 °C78 %1012.2 hPa10 kmNE (40°)11.1 km/hMostly Cloudy
3:00 AM26 °C22 °C78 %1012.2 hPa10 kmNE (50°)13 km/h
3:00 AM26.1 °C22.2 °C72 %1012.2 hPa40.2 kmNE (50°)13 km/hClear
3:30 AM26 °C22 °C78 %1012.2 hPa10 kmNE (40°)13 km/h
4:00 AM26 °C22 °C78 %1012.2 hPa10 kmNNE (30°)13 km/hOvercast
4:30 AM26 °C23 °C83 %1012.2 hPa10 kmENE (60°)11.1 km/hOvercast
5:00 AM26 °C23 °C83 %1012.2 hPa10 kmNNE (30°)9.3 km/hOvercast
5:30 AM26 °C22 °C78 %1012.2 hPa10 kmENE (60°)20.4 km/hMostly Cloudy
6:00 AM25 °C22 °C83 %1012.2 hPa10 kmNNE (30°)14.8 km/hMostly Cloudy
6:30 AM25 °C21 °C78 %1012.2 hPa8 kmNNE (30°)13 km/hOvercast
7:00 AM25 °C22 °C83 %1013.2 hPa9 kmVariable5.6 km/hOvercast
7:30 AM25 °C23 °C89 %1013.2 hPa9 kmVariable3.7 km/hMostly Cloudy
8:00 AM26 °C23 °C83 %1013.2 hPa9 kmNE (40°)9.3 km/hMostly Cloudy
8:30 AM27 °C23 °C79 %1014.2 hPa9 kmNE (40°)7.4 km/hMostly Cloudy
9:00 AM27 °C23 °C79 %1014.2 hPa9 kmNNE (30°)14.8 km/hMostly Cloudy
9:00 AM26.7 °C23.3 °C76 %1014.9 hPa9.7 kmNNE (30°)16.7 km/hPartly Cloudy
9:30 AM28 °C23 °C74 %1014.2 hPa9 kmNE (50°)14.8 km/hMostly Cloudy
10:00 AM28 °C23 °C74 %1014.2 hPa9 kmNE (50°)22.2 km/hMostly Cloudy
11:00 AM28 °C22 °C70 %1014.2 hPa9 kmENE (60°)25.9 km/hMostly Cloudy
11:30 AM28 °C24 °C79 %1014.2 hPa9 kmENE (60°)20.4 km/hMostly Cloudy
12:00 PM29 °C23 °C70 %1014.2 hPa9 kmENE (60°)24.1 km/hMostly Cloudy
12:30 PM30 °C22 °C62 %1014.2 hPa10 kmENE (60°)25.9 km/hScattered Clouds
1:00 PM30 °C22 °C62 %1014.2 hPa10 kmENE (60°)27.8 km/hScattered Clouds
1:30 PM30 °C23 °C66 %1013.2 hPa10 kmNE (50°)24.1 km/hScattered Clouds
2:00 PM30 °C22 °C62 %1013.2 hPa10 kmNE (50°)29.6 km/hScattered Clouds
2:30 PM30 °C21 °C58 %1012.2 hPa10 kmNE (50°)25.9 km/hScattered Clouds
3:00 PM30 °C22.2 °C55 %1012.2 hPa9.7 kmNE (50°)25.9 km/hPartly Cloudy
3:00 PM30 °C22 °C62 %1012.2 hPa10 kmNE (50°)27.8 km/hScattered Clouds
3:30 PM30 °C22 °C62 %1011.2 hPa10 kmNE (50°)22.2 km/hScattered Clouds
4:00 PM30 °C23 °C66 %1011.2 hPa10 kmNE (40°)25.9 km/hScattered Clouds
4:30 PM30 °C22 °C62 %1011.2 hPa10 kmNE (40°)18.5 km/hScattered Clouds
5:00 PM29 °C22 °C66 %1011.2 hPa10 kmNE (50°)18.5 km/hScattered Clouds
5:30 PM28 °C22 °C70 %1012.2 hPa10 kmNE (40°)20.4 km/hScattered Clouds
6:00 PM28 °C22 °C70 %1012.2 hPa10 kmNE (50°)18.5 km/hScattered Clouds
6:30 PM27 °C22 °C74 %1012.2 hPa10 kmNNE (30°)16.7 km/hScattered Clouds
7:00 PM27 °C22 °C74 %1012.2 hPa10 kmNE (40°)13 km/hScattered Clouds
7:30 PM27 °C22 °C74 %1012.2 hPa10 kmNNE (30°)14.8 km/h
8:00 PM26 °C22 °C78 %1012.2 hPa10 kmNE (50°)11.1 km/h
8:30 PM26 °C22 °C78 %1013.2 hPa10 kmNE (40°)13 km/h
9:00 PM26 °C22 °C78 %1013.2 hPa10 kmNE (40°)11.1 km/hScattered Clouds
9:00 PM26.1 °C22.2 °C74 %1013.9 hPa40.2 kmNE (40°)11.1 km/hClear
9:30 PM26 °C22 °C78 %1013.2 hPa10 kmNE (40°)11.1 km/hPartly Cloudy
10:00 PM26 °C22 °C78 %1014.2 hPa10 kmNNE (30°)11.1 km/hScattered Clouds
10:30 PM26 °C22 °C78 %1014.2 hPa10 kmNNE (30°)9.3 km/hPartly Cloudy
11:00 PM26 °C22 °C78 %1014.2 hPa10 kmNNE (30°)11.1 km/hPartly Cloudy
11:30 PM26 °C22 °C78 %1014.2 hPa10 kmNE (40°)9.3 km/hPartly Cloudy
Hourly data recorded from SOCA, located 0 kilometers away from Matoury, French Guiana







STORIES FROM OUR PARTNERS